Wind_Speed
50 49 49 49 50 50 50 51 51 51 51 51 52 53 53 52 51 49 48 47 45 42 43 45 51 54 51 46 45 48 51 52 50 46 45 43 40 40 43 47 49 50
50 49 49 50 50 51 51 52 52 51 50 52 52 52 53 52 51 49 47 48 46 41 40 44 48 53 54 48 45 47 48 50 51 48 46 46 43 42 42 45 50 52
51 50 50 50 51 51 52 53 52 51 50 52 52 52 52 51 50 49 46 46 47 43 41 44 47 50 53 50 47 47 47 49 52 51 48 48 49 47 44 43 47 51
52 51 51 51 52 53 53 54 53 51 50 51 53 52 51 49 48 47 44 43 46 46 43 44 48 50 50 50 49 48 47 48 52 53 49 48 49 50 48 45 47 51
52 52 52 52 53 54 54 54 53 52 51 51 52 52 51 49 47 46 43 42 44 46 44 44 48 51 50 50 52 52 49 48 51 53 51 47 46 47 48 48 49 51
52 53 53 54 54 55 55 54 53 52 51 51 52 52 51 48 46 45 43 41 42 45 44 44 47 52 54 52 52 54 52 47 47 50 51 49 46 46 46 46 48 49
53 53 54 54 55 55 55 55 54 53 52 51 52 52 51 49 46 44 43 40 41 43 42 43 46 50 56 56 54 54 52 47 45 47 50 50 49 48 47 47 48 49
54 54 55 55 56 56 55 54 54 54 52 52 52 52 51 50 47 44 42 40 39 40 41 43 45 47 54 58 56 55 52 49 48 46 47 49 49 47 47 48 49 51
55 55 55 56 56 55 55 55 54 54 53 52 52 52 51 50 48 45 41 39 37 38 39 42 45 46 52 56 56 56 55 54 52 48 46 48 47 44 44 46 47 50
56 56 56 56 56 55 55 55 55 55 54 53 52 52 51 49 48 45 41 38 36 36 39 42 45 46 51 55 55 56 57 57 56 52 49 49 48 47 46 46 48 49
57 57 56 56 56 55 55 55 55 55 54 53 52 52 51 50 48 45 41 38 34 35 38 42 45 47 50 54 55 55 56 57 57 54 51 50 50 51 50 50 50 51
57 56 56 56 56 56 56 55 55 56 55 54 52 52 52 50 48 46 42 37 33 33 39 42 45 47 49 54 55 55 55 56 57 56 54 52 50 50 51 51 50 49
56 56 56 56 56 56 56 56 56 56 56 54 53 52 52 51 49 47 42 38 33 32 38 43 45 47 50 54 56 57 57 58 58 58 58 56 53 51 50 51 49 48
56 56 56 56 56 56 56 56 57 57 56 55 53 52 51 51 50 48 44 39 34 31 37 44 47 49 53 55 58 58 58 59 60 60 60 59 57 56 55 53 51 49
56 57 57 57 57 57 57 57 57 57 56 55 54 52 51 50 49 48 46 41 36 32 35 44 50 53 54 56 59 60 59 60 61 61 61 59 58 60 60 58 55 51
57 57 57 57 57 57 58 58 58 58 57 56 55 53 51 50 49 48 46 44 39 35 33 41 52 57 57 56 58 60 60 61 62 63 64 62 60 60 61 60 59 56
57 58 58 58 58 58 59 59 59 58 58 57 56 54 51 50 49 48 46 45 42 38 35 38 49 59 61 59 59 60 61 62 63 64 66 66 63 60 59 60 60 60
58 58 59 59 59 59 60 60 59 59 58 58 56 55 53 51 49 48 47 45 44 41 38 37 44 56 64 64 62 61 61 63 64 64 66 68 68 64 60 59 59 60
59 60 60 60 60 60 60 60 60 60 59 59 58 56 55 53 51 49 47 45 44 43 42 39 40 50 61 66 67 64 62 63 66 67 66 68 70 70 67 63 62 62
60 61 61 61 61 61 61 61 61 61 60 59 59 58 57 56 54 51 49 47 44 43 44 43 41 44 55 64 69 68 65 64 66 68 68 68 69 71 71 69 68 67
60 61 61 62 62 62 62 62 62 61 61 60 60 59 58 57 56 54 52 50 46 43 44 45 44 44 49 59 68 71 70 68 68 68 69 69 68 69 72 72 72 71
61 61 62 63 63 63 63 62 62 62 62 62 61 60 60 59 58 57 55 53 50 46 44 44 47 47 47 53 64 72 75 74 73 71 70 69 68 68 69 70 72 73
62 63 63 64 64 63 63 63 63 63 63 63 63 62 62 61 60 59 58 57 54 51 47 45 46 49 50 51 57 68 76 79 79 77 74 73 72 71 70 70 72 73
64 64 64 65 65 64 64 64 64 65 65 64 64 64 64 64 63 62 61 60 58 55 53 49 47 49 51 53 55 61 71 79 83 83 81 79 77 76 75 74 75 75
65 65 65 65 65 65 65 66 66 66 66 66 66 66 66 66 66 65 64 63 61 59 57 54 51 50 52 54 56 59 64 72 80 84 85 85 83 82 80 79 79 79
65 65 66 66 66 66 67 67 68 68 68 69 69 69 69 68 68 68 67 66 64 62 60 58 56 54 54 55 58 61 63 68 74 79 83 85 86 85 83 81 79 79
Wind_Direction
278 281 284 286 289 292 294 296 298 299 300 301 302 302 301 299 294 288 282 277 273 267 256 242 231 229 233 234 234 237 237 235 235 237 239 242 245 247 248 249 250 251
277 280 283 285 288 290 293 295 297 298 300 301 303 303 303 301 297 291 284 277 272 267 258 245 232 228 230 231 233 234 236 235 233 235 237 238 238 240 244 248 249 250
277 279 282 284 287 289 292 294 296 298 301 302 303 305 304 303 299 293 285 277 270 266 258 244 232 227 227 227 231 234 236 237 234 233 237 239 238 238 241 245 248 249
277 279 282 284 286 288 291 293 296 298 301 303 305 306 306 305 301 294 286 276 268 264 258 245 232 229 227 225 226 231 235 238 235 234 237 240 241 241 241 244 246 247
276 279 281 283 286 288 290 293 295 298 301 304 306 307 308 306 302 296 285 275 267 262 257 247 235 228 227 226 224 226 231 235 236 236 237 239 241 242 242 244 248 249
276 278 280 283 285 287 289 292 295 298 301 304 306 308 309 308 304 297 287 275 267 262 255 247 238 228 225 226 226 226 228 231 234 235 236 237 240 241 241 244 248 250
277 278 280 282 284 287 289 292 295 298 301 304 306 308 310 309 305 299 291 280 268 263 254 245 239 231 224 223 226 226 225 226 230 232 234 236 239 242 243 244 246 248
277 278 279 281 284 286 288 291 294 297 300 303 306 308 310 310 307 302 296 286 272 263 254 242 237 232 223 219 223 225 222 221 224 228 232 235 238 242 244 246 247 248
276 277 279 281 283 285 288 290 293 296 299 302 305 307 310 311 310 305 300 292 278 263 251 239 234 231 223 218 221 223 222 220 221 225 229 232 235 238 241 244 246 247
275 277 279 280 282 284 287 290 292 295 298 301 304 307 310 311 311 308 304 296 281 263 249 238 232 229 223 219 220 223 224 223 223 226 229 230 232 234 238 241 243 245
275 276 278 280 281 284 286 289 291 294 296 300 303 306 309 311 311 310 307 301 285 262 246 237 232 228 222 218 219 222 224 225 225 226 227 229 232 234 237 240 242 244
274 276 278 280 281 283 285 287 290 292 295 298 301 305 308 310 311 310 308 304 290 263 244 235 232 227 220 217 217 220 222 224 225 226 227 227 230 232 236 239 240 242
274 276 278 279 281 283 284 286 288 291 294 297 300 303 306 308 310 310 308 305 295 269 243 234 230 225 219 217 217 218 220 222 224 227 228 229 230 231 234 237 239 241
274 276 277 279 280 282 284 285 287 289 292 295 298 301 304 306 308 310 308 305 298 277 248 233 227 222 218 218 218 217 219 222 224 227 229 231 232 233 234 236 239 242
275 276 277 279 280 281 283 284 286 288 291 293 296 299 302 304 306 308 308 304 300 286 257 235 225 220 219 221 220 218 219 222 224 226 228 230 232 235 235 236 240 243
275 276 277 278 279 280 282 283 285 287 290 292 294 297 299 302 303 305 306 304 299 291 269 243 227 221 222 223 223 222 222 223 224 226 227 228 232 236 236 237 240 243
275 276 277 278 279 280 281 283 284 286 289 291 293 295 297 299 301 302 304 303 299 293 280 255 235 225 224 225 226 225 225 226 227 227 228 229 232 236 237 238 241 243
276 276 277 278 279 280 281 283 284 286 288 290 292 294 295 296 298 299 301 301 298 293 285 269 247 232 227 226 227 227 228 229 229 230 230 230 232 234 236 237 239 242
277 277 278 278 279 280 281 283 284 285 287 289 291 292 294 294 295 297 297 298 297 293 287 277 259 242 233 229 228 227 229 231 232 232 232 233 232 234 235 236 237 239
277 277 278 279 279 280 281 283 284 285 287 288 290 291 292 293 294 295 295 295 294 292 287 281 270 252 239 233 230 228 229 232 233 233 234 235 235 235 236 237 237 239
278 278 279 279 280 281 282 283 284 285 287 288 289 290 291 292 293 293 293 293 292 290 287 282 276 264 248 237 233 230 229 230 232 232 233 234 236 236 237 238 239 240
280 280 280 280 281 282 283 284 285 285 286 287 288 289 290 290 291 292 292 291 290 288 285 280 276 271 260 245 236 232 230 230 231 231 231 231 233 236 238 239 241 241
281 281 281 282 283 283 284 285 285 286 286 287 287 288 289 289 290 290 290 290 289 287 283 279 274 271 267 257 244 236 233 232 232 232 232 231 232 234 237 240 242 243
281 282 282 283 283 284 284 285 285 285 286 286 287 287 288 288 289 289 289 288 288 286 283 279 273 269 266 263 255 245 237 235 235 235 235 234 235 236 238 241 243 244
282 282 283 283 284 284 284 285 285 285 285 286 286 287 287 288 288 288 287 287 286 285 283 280 275 269 265 262 259 254 246 239 237 237 238 238 238 239 241 242 245 246
283 283 283 284 284 284 284 285 285 285 286 286 286 286 286 287 287 286 286 286 285 283 281 279 275 271 266 262 259 256 252 246 241 239 239 240 240 241 242 243 245 246
Height
10697 10697 10696 10695 10694 10692 10690 10687 10685 10683 10680 10677 10673 10670 10667 10665 10664 10663 10662 10662 10663 10664 10666 10667 10669 10671 10675 10680 10682 10684 10686 10689 10691 10693 10694 10695 10697 10698 10698 10698 10698 10699
10692 10692 10692 10691 10690 10688 10685 10683 10680 10678 10675 10672 10669 10666 10663 10660 10657 10656 10655 10655 10656 10657 10658 10660 10663 10666 10670 10674 10676 10677 10679 10683 10686 10687 10688 10689 10690 10692 10693 10693 10693 10694
10687 10687 10687 10686 10685 10683 10681 10678 10675 10673 10670 10667 10664 10661 10658 10655 10652 10650 10649 10648 10648 10650 10651 10653 10657 10660 10663 10668 10671 10672 10675 10678 10680 10682 10683 10683 10684 10686 10688 10690 10690 10689
10682 10682 10682 10681 10680 10678 10676 10673 10671 10668 10665 10662 10659 10656 10653 10650 10647 10644 10642 10641 10641 10642 10643 10646 10650 10654 10657 10661 10665 10668 10671 10673 10675 10677 10679 10678 10679 10681 10684 10685 10685 10684
10677 10676 10676 10675 10674 10673 10671 10668 10666 10663 10660 10658 10655 10652 10648 10645 10642 10638 10636 10635 10634 10635 10637 10640 10644 10648 10651 10654 10658 10662 10664 10667 10669 10673 10674 10673 10674 10676 10678 10679 10678 10679
10672 10671 10670 10670 10669 10667 10665 10663 10660 10658 10655 10653 10650 10647 10643 10640 10637 10633 10630 10629 10628 10628 10630 10633 10637 10642 10645 10648 10652 10655 10659 10662 10665 10667 10668 10668 10668 10670 10672 10673 10673 10674
10666 10665 10665 10664 10663 10661 10660 10657 10655 10653 10650 10648 10645 10642 10638 10634 10631 10628 10624 10623 10622 10623 10624 10627 10630 10634 10638 10642 10646 10650 10655 10658 10660 10661 10661 10661 10663 10664 10665 10667 10668 10668
10661 10660 10659 10659 10657 10656 10654 10652 10650 10648 10645 10643 10641 10638 10634 10629 10625 10622 10619 10617 10616 10617 10619 10621 10624 10628 10632 10636 10640 10645 10649 10650 10651 10653 10654 10655 10656 10658 10659 10660 10661 10662
10654 10654 10653 10653 10651 10650 10648 10647 10645 10643 10640 10638 10636 10633 10630 10625 10620 10617 10615 10612 10611 10611 10613 10616 10619 10623 10627 10631 10635 10638 10640 10641 10643 10645 10646 10648 10650 10652 10653 10654 10655 10655
10648 10648 10647 10647 10645 10644 10643 10641 10639 10638 10635 10633 10630 10628 10625 10621 10616 10613 10610 10608 10607 10606 10608 10611 10614 10618 10621 10626 10629 10631 10633 10635 10637 10639 10640 10642 10644 10645 10647 10648 10648 10648
10642 10641 10641 10640 10639 10638 10637 10635 10634 10632 10630 10628 10626 10623 10619 10616 10613 10609 10606 10604 10603 10602 10603 10606 10609 10612 10616 10619 10622 10624 10627 10629 10632 10633 10634 10636 10637 10638 10640 10640 10641 10642
10635 10635 10634 10633 10633 10632 10631 10629 10628 10626 10624 10623 10620 10617 10614 10611 10608 10605 10602 10600 10599 10598 10599 10601 10605 10607 10610 10613 10616 10618 10620 10622 10625 10627 10627 10628 10630 10632 10632 10633 10634 10635
10628 10628 10627 10627 10626 10625 10624 10623 10622 10620 10619 10617 10615 10612 10609 10606 10603 10600 10598 10596 10595 10594 10595 10597 10600 10602 10605 10607 10608 10610 10612 10615 10618 10620 10621 10622 10624 10626 10626 10626 10627 10628
10621 10621 10620 10620 10619 10618 10617 10616 10615 10614 10613 10611 10609 10607 10605 10602 10598 10596 10594 10592 10591 10590 10591 10592 10595 10597 10599 10600 10601 10603 10605 10608 10610 10612 10615 10617 10619 10619 10619 10619 10620 10622
10614 10614 10614 10613 10612 10611 10610 10609 10608 10607 10606 10605 10604 10602 10600 10597 10594 10591 10589 10588 10587 10586 10586 10588 10590 10592 10593 10595 10596 10598 10600 10601 10603 10605 10608 10611 10612 10612 10613 10614 10615 10616
10607 10607 10606 10605 10605 10604 10603 10602 10601 10600 10599 10598 10597 10596 10594 10592 10590 10587 10585 10583 10582 10581 10581 10582 10584 10586 10588 10589 10590 10592 10594 10595 10596 10598 10601 10603 10603 10603 10606 10608 10609 10610
10600 10600 10599 10598 10597 10596 10595 10594 10593 10592 10592 10591 10590 10589 10588 10587 10585 10582 10580 10578 10577 10576 10576 10576 10578 10580 10582 10583 10585 10586 10587 10589 10590 10592 10594 10595 10595 10597 10599 10601 10602 10603
10592 10592 10591 10591 10590 10589 10588 10587 10586 10585 10584 10583 10582 10582 10581 10581 10579 10578 10576 10574 10572 10571 10570 10570 10571 10573 10574 10576 10578 10580 10580 10582 10583 10585 10587 10588 10589 10591 10592 10594 10595 10596
10585 10584 10583 10583 10582 10581 10580 10579 10578 10577 10576 10575 10575 10574 10573 10573 10572 10572 10570 10569 10567 10565 10564 10564 10564 10565 10567 10569 10571 10572 10573 10575 10576 10578 10579 10581 10583 10585 10586 10587 10587 10588
10577 10576 10575 10575 10574 10573 10573 10572 10571 10569 10568 10568 10567 10566 10565 10564 10564 10564 10563 10563 10562 10560 10558 10557 10557 10558 10559 10560 10562 10564 10566 10567 10568 10571 10572 10574 10577 10578 10577 10577 10578 10579
10568 10568 10567 10566 10566 10565 10565 10564 10563 10562 10561 10560 10559 10558 10557 10556 10556 10555 10555 10555 10555 10554 10552 10550 10549 10550 10551 10552 10553 10555 10557 10559 10560 10562 10564 10567 10569 10569 10568 10568 10569 10571
10560 10560 10559 10558 10557 10557 10557 10556 10555 10553 10553 10552 10551 10550 10549 10548 10547 10546 10546 10546 10546 10547 10546 10544 10542 10541 10541 10543 10544 10545 10547 10549 10550 10553 10555 10558 10559 10559 10560 10560 10561 10562
10552 10552 10550 10549 10549 10549 10548 10547 10546 10545 10544 10543 10542 10541 10540 10539 10538 10538 10537 10537 10537 10537 10537 10537 10535 10533 10532 10533 10534 10535 10537 10538 10540 10542 10545 10548 10550 10550 10552 10552 10551 10552
10544 10543 10542 10541 10541 10540 10539 10538 10537 10535 10534 10533 10532 10531 10530 10529 10529 10528 10528 10527 10527 10527 10527 10527 10527 10525 10524 10524 10524 10525 10526 10528 10529 10531 10534 10537 10539 10540 10542 10543 10543 10544
10535 10534 10534 10533 10532 10531 10530 10529 10527 10526 10525 10524 10522 10521 10520 10519 10518 10518 10517 10517 10517 10517 10517 10517 10517 10516 10515 10514 10514 10514 10515 10516 10518 10520 10523 10526 10527 10529 10532 10533 10534 10535
10527 10525 10525 10524 10523 10521 10520 10519 10517 10516 10515 10513 10512 10511 10510 10509 10508 10507 10506 10506 10506 10506 10506 10506 10505 10505 10504 10504 10503 10503 10503 10504 10506 10508 10511 10513 10515 10518 10520 10522 10525 10526